BTN701 VECC-VQPR

Flight info

Callsign BTN701
Flight time N/A
Altitude 35000
Route AGODA R472 RAJ R598 BOGOP DCT TAKTI DCT PRO DCT PR
Aircraft A319/M-SDE3FGHIRWY/LB1

Departure

Time 2026-04-24 00:18
Airport Netaji Subhash Chandra Bose International Airport (VECC)

Arrival

Time N/A
Airport Paro International Airport (VQPR)
Time Latitude Longitude Altitude Speed Heading
2026-04-23 23:50 22.65028 88.44167 29 ft 0 kts 277°
2026-04-24 00:08 22.65026 88.44190 29 ft 4 kts 274°
2026-04-24 00:08 22.65025 88.44219 29 ft 4 kts 264°
2026-04-24 00:08 22.65031 88.44246 29 ft 4 kts 227°
2026-04-24 00:08 22.65041 88.44254 29 ft 1 kts 188°
2026-04-24 00:12 22.65040 88.44254 29 ft 0 kts 188°
2026-04-24 00:12 22.65023 88.44251 29 ft 6 kts 188°
2026-04-24 00:12 22.64958 88.44243 29 ft 12 kts 185°
2026-04-24 00:13 22.64873 88.44232 29 ft 13 kts 187°
2026-04-24 00:13 22.64783 88.44220 29 ft 13 kts 187°
2026-04-24 00:13 22.64687 88.44208 29 ft 14 kts 186°
2026-04-24 00:13 22.64586 88.44195 29 ft 15 kts 187°
2026-04-24 00:14 22.64478 88.44180 29 ft 16 kts 187°
2026-04-24 00:14 22.64365 88.44165 29 ft 17 kts 187°
2026-04-24 00:14 22.64247 88.44150 29 ft 18 kts 186°
2026-04-24 00:14 22.64123 88.44134 29 ft 18 kts 187°
2026-04-24 00:15 22.64028 88.44130 29 ft 10 kts 153°
2026-04-24 00:15 22.64011 88.44198 28 ft 10 kts 97°
2026-04-24 00:15 22.64008 88.44277 29 ft 11 kts 66°
2026-04-24 00:15 22.64076 88.44297 28 ft 11 kts
2026-04-24 00:16 22.64156 88.44313 28 ft 11 kts 34°
2026-04-24 00:16 22.64187 88.44391 29 ft 11 kts 69°
2026-04-24 00:16 22.64218 88.44471 30 ft 12 kts 67°
2026-04-24 00:16 22.64253 88.44556 29 ft 13 kts 66°
2026-04-24 00:17 22.64297 88.44645 29 ft 11 kts 33°
2026-04-24 00:17 22.64380 88.44657 28 ft 16 kts
2026-04-24 00:17 22.64710 88.44696 28 ft 85 kts
2026-04-24 00:17 22.65513 88.44789 29 ft 145 kts
2026-04-24 00:18 22.66659 88.44915 265 ft 170 kts
2026-04-24 00:18 22.67807 88.45052 1017 ft 166 kts
2026-04-24 00:18 22.68976 88.45199 1582 ft 170 kts
2026-04-24 00:18 22.70215 88.45356 1914 ft 192 kts
2026-04-24 00:19 22.71614 88.45534 2222 ft 213 kts
2026-04-24 00:19 22.73188 88.45730 2482 ft 240 kts
2026-04-24 00:19 22.74933 88.45947 2875 ft 264 kts
2026-04-24 00:19 22.76796 88.46178 3554 ft 273 kts
2026-04-24 00:20 22.78706 88.46365 4409 ft 276 kts
2026-04-24 00:20 22.80621 88.46195 5288 ft 278 kts 351°
2026-04-24 00:20 22.82531 88.45808 6159 ft 280 kts 347°
2026-04-24 00:20 22.84438 88.45352 7020 ft 281 kts 346°
2026-04-24 00:21 22.86353 88.44893 7893 ft 283 kts 346°
2026-04-24 00:21 22.88281 88.44453 8787 ft 284 kts 346°
2026-04-24 00:21 22.90225 88.44036 9693 ft 285 kts 347°
2026-04-24 00:21 22.92214 88.43626 10219 ft 301 kts 347°
2026-04-24 00:22 22.94356 88.43194 10444 ft 325 kts 347°
2026-04-24 00:22 22.96609 88.42750 10832 ft 339 kts 348°
2026-04-24 00:22 22.98955 88.42295 11460 ft 346 kts 348°
2026-04-24 00:22 23.01335 88.41834 12120 ft 350 kts 348°
2026-04-24 00:23 23.03750 88.41364 12787 ft 355 kts 348°
2026-04-24 00:23 23.06203 88.40887 13445 ft 360 kts 349°
2026-04-24 00:23 23.08680 88.40405 14029 ft 364 kts 349°
2026-04-24 00:23 23.11191 88.39914 14591 ft 369 kts 349°
2026-04-24 00:24 23.13730 88.39415 15150 ft 373 kts 349°
2026-04-24 00:24 23.16302 88.38910 15711 ft 378 kts 349°
2026-04-24 00:24 23.18903 88.38399 16246 ft 383 kts 349°
2026-04-24 00:24 23.21543 88.37878 16780 ft 388 kts 349°
2026-04-24 00:25 23.24213 88.37349 17312 ft 393 kts 350°
2026-04-24 00:25 23.26918 88.36817 17856 ft 397 kts 350°
2026-04-24 00:25 23.29650 88.36285 18382 ft 401 kts 350°
2026-04-24 00:25 23.32410 88.35747 18883 ft 404 kts 350°
2026-04-24 00:26 23.35190 88.35204 19405 ft 407 kts 349°
2026-04-24 00:26 23.37984 88.34653 19937 ft 410 kts 349°
2026-04-24 00:26 23.40800 88.34096 20474 ft 413 kts 349°
2026-04-24 00:26 23.43637 88.33535 21015 ft 415 kts 349°
2026-04-24 00:27 23.46489 88.32971 21541 ft 418 kts 349°
2026-04-24 00:27 23.49330 88.32412 22044 ft 421 kts 349°
2026-04-24 00:27 23.52218 88.31844 22550 ft 424 kts 349°
2026-04-24 00:27 23.55153 88.31446 23040 ft 427 kts 357°
2026-04-24 00:28 23.58133 88.31556 23496 ft 431 kts
2026-04-24 00:28 23.61130 88.31800 23903 ft 433 kts
2026-04-24 00:28 23.64141 88.32042 24307 ft 435 kts
2026-04-24 00:28 23.67180 88.32279 24709 ft 438 kts
2026-04-24 00:29 23.70222 88.32514 25096 ft 440 kts
2026-04-24 00:29 23.73290 88.32752 25476 ft 442 kts
2026-04-24 00:29 23.76363 88.32996 25864 ft 445 kts
2026-04-24 00:29 23.79463 88.33244 26245 ft 447 kts
2026-04-24 00:30 23.82572 88.33492 26629 ft 450 kts
2026-04-24 00:30 23.85705 88.33740 27002 ft 452 kts
2026-04-24 00:30 23.88853 88.33989 27370 ft 455 kts
2026-04-24 00:30 23.91986 88.34238 27729 ft 457 kts
2026-04-24 00:31 23.95163 88.34574 28075 ft 462 kts
2026-04-24 00:31 23.98300 88.35421 28415 ft 468 kts 16°
2026-04-24 00:31 24.01305 88.36844 28750 ft 474 kts 26°
2026-04-24 00:31 24.04097 88.38785 29079 ft 478 kts 33°
2026-04-24 00:32 24.06842 88.40876 29403 ft 481 kts 32°
2026-04-24 00:32 24.09596 88.42970 29721 ft 483 kts 32°
2026-04-24 00:32 24.12366 88.45078 29997 ft 486 kts 32°
2026-04-24 00:32 24.15158 88.47198 30235 ft 489 kts 32°
2026-04-24 00:33 24.17959 88.49319 30458 ft 492 kts 31°
2026-04-24 00:33 24.20784 88.51456 30709 ft 494 kts 31°
2026-04-24 00:33 24.23621 88.53603 31027 ft 495 kts 31°
2026-04-24 00:33 24.26449 88.55749 31336 ft 496 kts 31°
2026-04-24 00:34 24.29315 88.57784 31630 ft 494 kts 24°
2026-04-24 00:34 24.32409 88.59369 31926 ft 488 kts 14°
2026-04-24 00:34 24.35640 88.60416 32254 ft 481 kts
2026-04-24 00:34 24.38920 88.60948 32594 ft 475 kts 359°
2026-04-24 00:35 24.42214 88.61327 32960 ft 475 kts 358°
2026-04-24 00:35 24.45497 88.61863 33317 ft 480 kts
2026-04-24 00:35 24.48770 88.62579 33671 ft 479 kts
2026-04-24 00:35 24.52041 88.63298 33994 ft 479 kts
2026-04-24 00:36 24.54243 88.63784 34196 ft 479 kts
2026-04-24 00:36 24.57516 88.64510 34484 ft 478 kts
2026-04-24 00:36 24.60732 88.65226 34726 ft 478 kts
2026-04-24 00:36 24.63993 88.65953 34792 ft 476 kts
2026-04-24 00:37 24.70473 88.67403 34792 ft 475 kts
2026-04-24 00:37 24.76954 88.68846 34791 ft 474 kts
2026-04-24 00:38 24.83418 88.70274 34792 ft 474 kts
2026-04-24 00:38 24.89889 88.71702 34793 ft 474 kts
2026-04-24 00:39 24.96361 88.73143 34797 ft 475 kts
2026-04-24 00:39 25.02834 88.74585 34804 ft 475 kts
2026-04-24 00:40 25.09310 88.76032 34808 ft 475 kts
2026-04-24 00:40 25.15792 88.77488 34814 ft 475 kts
2026-04-24 00:41 25.22266 88.78935 34817 ft 474 kts
2026-04-24 00:41 25.28729 88.80375 34821 ft 474 kts
2026-04-24 00:42 25.35152 88.81796 34820 ft 474 kts
2026-04-24 00:42 25.41620 88.83223 34818 ft 473 kts
2026-04-24 00:43 25.48082 88.84648 34824 ft 473 kts
2026-04-24 00:43 25.54544 88.86074 34822 ft 473 kts
2026-04-24 00:44 25.61003 88.87503 34828 ft 473 kts
2026-04-24 00:44 25.67438 88.88932 34279 ft 471 kts
2026-04-24 00:45 25.70654 88.89647 33630 ft 471 kts
2026-04-24 00:45 25.73820 88.90582 32916 ft 474 kts 17°
2026-04-24 00:45 25.76835 88.92105 32238 ft 477 kts 27°
2026-04-24 00:45 25.79584 88.94176 31543 ft 479 kts 38°
2026-04-24 00:46 25.82066 88.96654 30845 ft 479 kts 41°
2026-04-24 00:46 25.84513 88.99160 30138 ft 479 kts 41°
2026-04-24 00:46 25.86928 89.01629 29372 ft 478 kts 42°
2026-04-24 00:46 25.89358 89.04112 28764 ft 472 kts 42°
2026-04-24 00:47 25.91758 89.06563 28150 ft 466 kts 42°
2026-04-24 00:47 25.94136 89.08994 27783 ft 464 kts 42°
2026-04-24 00:47 25.96513 89.11423 27524 ft 463 kts 42°
2026-04-24 00:47 25.98880 89.13842 27267 ft 462 kts 43°
2026-04-24 00:48 26.01244 89.16259 27016 ft 460 kts 43°
2026-04-24 00:48 26.03593 89.18659 26770 ft 458 kts 43°
2026-04-24 00:48 26.05936 89.21058 26522 ft 457 kts 43°
2026-04-24 00:48 26.08266 89.23451 26280 ft 455 kts 43°
2026-04-24 00:49 26.10590 89.25819 26045 ft 453 kts 42°
2026-04-24 00:49 26.12959 89.28132 25799 ft 452 kts 41°
2026-04-24 00:49 26.15347 89.30390 25562 ft 450 kts 40°
2026-04-24 00:49 26.17744 89.32622 25328 ft 449 kts 40°
2026-04-24 00:50 26.20138 89.34846 25094 ft 447 kts 40°
2026-04-24 00:50 26.22487 89.37044 24866 ft 446 kts 41°
2026-04-24 00:50 26.24877 89.39309 24633 ft 444 kts 41°
2026-04-24 00:50 26.27185 89.41513 24406 ft 443 kts 41°
2026-04-24 00:51 26.29522 89.43753 24180 ft 442 kts 41°
2026-04-24 00:51 26.31850 89.45984 23958 ft 440 kts 41°
2026-04-24 00:51 26.34299 89.48032 23729 ft 440 kts 33°
2026-04-24 00:51 26.36901 89.49806 23512 ft 439 kts 32°
2026-04-24 00:52 26.39508 89.51572 23209 ft 436 kts 32°
2026-04-24 00:52 26.42083 89.53321 22585 ft 432 kts 32°
2026-04-24 00:52 26.44641 89.55064 22013 ft 428 kts 31°
2026-04-24 00:52 26.47168 89.56788 21467 ft 425 kts 31°
2026-04-24 00:53 26.49685 89.58507 20933 ft 422 kts 31°
2026-04-24 00:53 26.52179 89.60211 20433 ft 418 kts 31°
2026-04-24 00:53 26.54654 89.61899 19944 ft 416 kts 30°
2026-04-24 00:53 26.57109 89.63574 19461 ft 413 kts 30°
2026-04-24 00:54 26.59552 89.65241 18982 ft 410 kts 30°
2026-04-24 00:54 26.61976 89.66896 18509 ft 407 kts 30°
2026-04-24 00:54 26.64384 89.68539 18021 ft 404 kts 29°
2026-04-24 00:54 26.66774 89.70169 17477 ft 401 kts 28°
2026-04-24 00:55 26.69278 89.71469 16952 ft 394 kts 15°
2026-04-24 00:55 26.71936 89.72102 16487 ft 386 kts
2026-04-24 00:55 26.74557 89.72069 16352 ft 368 kts 350°
2026-04-24 00:55 26.76967 89.71494 16237 ft 351 kts 339°
2026-04-24 00:56 26.79159 89.70435 16125 ft 336 kts 328°
2026-04-24 00:56 26.81086 89.69062 16011 ft 324 kts 324°
2026-04-24 00:56 26.82950 89.67697 15893 ft 314 kts 324°
2026-04-24 00:56 26.84752 89.66381 15775 ft 306 kts 324°
2026-04-24 00:57 26.86508 89.65100 15666 ft 296 kts 324°
2026-04-24 00:57 26.88200 89.63866 15682 ft 283 kts 324°
2026-04-24 00:57 26.91370 89.61552 15696 ft 260 kts 324°
2026-04-24 00:58 26.92861 89.60459 15698 ft 253 kts 324°
2026-04-24 00:58 26.94328 89.59381 15707 ft 251 kts 324°
2026-04-24 00:58 26.95788 89.58309 15706 ft 251 kts 324°
2026-04-24 00:58 26.97251 89.57233 15714 ft 251 kts 324°
2026-04-24 00:59 26.98716 89.56157 15718 ft 252 kts 324°
2026-04-24 00:59 27.00157 89.55100 15722 ft 251 kts 324°
2026-04-24 00:59 27.01640 89.54012 15728 ft 251 kts 324°
2026-04-24 00:59 27.03082 89.52953 15664 ft 250 kts 324°
2026-04-24 01:00 27.04548 89.51920 15398 ft 250 kts 332°
2026-04-24 01:00 27.06225 89.51502 15295 ft 244 kts 354°
2026-04-24 01:00 27.07906 89.51431 15090 ft 239 kts 354°
2026-04-24 01:00 27.09564 89.51363 14850 ft 238 kts 354°
2026-04-24 01:01 27.11221 89.51294 14617 ft 238 kts 354°
2026-04-24 01:01 27.12868 89.51225 14379 ft 237 kts 355°
2026-04-24 01:01 27.14514 89.51156 14169 ft 236 kts 355°
2026-04-24 01:01 27.16157 89.51084 13961 ft 236 kts 355°
2026-04-24 01:02 27.17799 89.51014 13730 ft 235 kts 355°
2026-04-24 01:02 27.19400 89.50949 13607 ft 224 kts 355°
2026-04-24 01:02 27.20924 89.50887 13501 ft 213 kts 355°
2026-04-24 01:02 27.22363 89.50828 13436 ft 203 kts 355°
2026-04-24 01:03 27.23767 89.50770 13452 ft 201 kts 355°
2026-04-24 01:03 27.25163 89.50710 13463 ft 200 kts 356°
2026-04-24 01:03 27.26553 89.50651 13456 ft 202 kts 355°
2026-04-24 01:03 27.27965 89.50590 13134 ft 204 kts 356°
2026-04-24 01:04 27.29372 89.50509 12867 ft 201 kts 351°
2026-04-24 01:04 27.30662 89.49995 12636 ft 196 kts 327°
2026-04-24 01:04 27.31758 89.49113 12398 ft 191 kts 323°
2026-04-24 01:04 27.32806 89.48263 12165 ft 185 kts 323°
2026-04-24 01:05 27.33834 89.47429 12050 ft 179 kts 323°
2026-04-24 01:05 27.34822 89.46627 11841 ft 173 kts 323°
2026-04-24 01:05 27.35708 89.45734 11487 ft 170 kts 309°
2026-04-24 01:05 27.36351 89.44632 11163 ft 168 kts 303°
2026-04-24 01:06 27.37106 89.43626 10995 ft 167 kts 314°
2026-04-24 01:06 27.37963 89.42751 10837 ft 166 kts 322°
2026-04-24 01:06 27.38932 89.42056 10585 ft 165 kts 332°
2026-04-24 01:06 27.39973 89.41528 10280 ft 165 kts 338°
2026-04-24 01:07 27.40992 89.40949 10018 ft 165 kts 329°
2026-04-24 01:07 27.41849 89.40100 9790 ft 166 kts 303°
2026-04-24 01:07 27.42360 89.38937 9598 ft 166 kts 294°
2026-04-24 01:07 27.42869 89.37782 9446 ft 165 kts 302°
2026-04-24 01:08 27.43579 89.36768 9311 ft 165 kts 307°
2026-04-24 01:08 27.44397 89.35892 9172 ft 167 kts 340°
2026-04-24 01:08 27.45517 89.36028 9021 ft 167 kts 31°
2026-04-24 01:08 27.46086 89.37099 9066 ft 161 kts 90°
2026-04-24 01:09 27.45730 89.38218 9363 ft 163 kts 128°
2026-04-24 01:09 27.44969 89.39197 9048 ft 167 kts 128°
2026-04-24 01:09 27.44265 89.40245 8575 ft 167 kts 124°
2026-04-24 01:09 27.43567 89.41258 8082 ft 165 kts 143°
2026-04-24 01:10 27.42498 89.41614 7665 ft 156 kts 175°
2026-04-24 01:10 27.41435 89.41775 7459 ft 156 kts 158°
2026-04-24 01:10 27.40526 89.42342 7357 ft 134 kts 149°
2026-04-24 01:10 27.40103 89.42642 7353 ft 137 kts 150°